Janesville, WI

11:20 AM CST on December 11, 2019 (GMT -0600)
Rock County

Weather History for KJVL - November, 2019

Change the Weather History Date:

Saturday, November 16, 2019

  Actual Average Record
Temperature  
Mean Temperature 31 °F -  
Max Temperature 41 °F 47 °F 69 °F (1990)
Min Temperature 21 °F 31 °F 12 °F (2014)
Degree Days  
Heating Degree Days 34    
Moisture  
Dew Point 27 °F    
Average Humidity 91    
Maximum Humidity 100    
Minimum Humidity 61    
Precipitation  
Precipitation 0.00 in - - ()
Sea Level Pressure  
Sea Level Pressure 30.31 in    
Wind  
Wind Speed 3 mph ()    
Max Wind Speed 12 mph    
Max Gust Speed -    
Visibility 6.2 miles    
Events Fog    
Averages and records for this station are not official NWS values.
T = Trace of Precipitation, MM = Missing Value Source: Averaged Metar Reports

Daily Weather History Graph

Daily Weather History Graph

Search for Another Location

Airport or City:

Astronomy

Nov. 16, 2019 Rise Set
Actual Time 6:48 AM CST 4:32 PM CST
Civil Twilight 6:18 AM CST 5:03 PM CST
Nautical Twilight 5:43 AM CST 5:37 PM CST
Astronomical Twilight 5:10 AM CST 6:10 PM CST
Moon 8:03 PM CST (11/16) 10:44 AM CST (11/16)
Length of Visible Light 10h 45m
Length of Day
9h 44m
Waning Gibbous, 82% of the Moon is Illuminated
Nov 16
Waning Gibbous
Nov 19
Last Quarter
Nov 26
New
Dec 4
First Quarter
Dec 11
Full

Hourly Weather History & Observations

Time (CST) Temp. Windchill Dew Point Humidity Pressure Visibility Wind Dir Wind Speed Gust Speed Precip Events Conditions
12:15 AM 26.6 °F - 24.8 °F 93% 30.41 in 7.0 mi Calm Calm - N/A   Clear
12:35 AM 26.6 °F - 26.6 °F 100% 30.40 in 7.0 mi Calm Calm - N/A   Clear
12:55 AM 26.6 °F - 26.6 °F 100% 30.40 in 7.0 mi Calm Calm - N/A   Clear
1:15 AM 26.6 °F - 26.6 °F 100% 30.40 in 5.0 mi Calm Calm - N/A   Clear
1:35 AM 24.8 °F 20.5 °F 24.8 °F 100% 30.40 in 5.0 mi West 3.5 mph - N/A   Clear
1:55 AM 24.8 °F 20.5 °F 24.8 °F 100% 30.41 in 2.5 mi NW 3.5 mph - N/A   Clear
2:15 AM 23.0 °F - 23.0 °F 100% 30.40 in 3.0 mi Calm Calm - N/A   Clear
2:35 AM 23.0 °F - 23.0 °F 100% 30.40 in 3.0 mi Calm Calm - N/A   Clear
2:55 AM 23.0 °F - 23.0 °F 100% 30.40 in 3.0 mi Calm Calm - N/A   Clear
3:15 AM 23.0 °F - 23.0 °F 100% 30.40 in 3.0 mi Calm Calm - N/A   Clear
3:35 AM 24.8 °F - 24.8 °F 100% 30.40 in 2.0 mi Calm Calm - N/A   Clear
3:55 AM 21.2 °F - 21.2 °F 100% 30.40 in 4.0 mi Calm Calm - N/A   Clear
4:15 AM 23.0 °F - 23.0 °F 100% 30.40 in 0.5 mi Calm Calm - N/A Fog Light Freezing Fog
4:35 AM 23.0 °F - 23.0 °F 100% 30.40 in 0.5 mi Calm Calm - N/A Fog Light Freezing Fog
4:55 AM 23.0 °F - 23.0 °F 100% 30.40 in 1.2 mi Calm Calm - N/A   Mist
5:45 AM 21.2 °F - 21.2 °F 100% 30.40 in 6.0 mi Calm Calm - N/A   Partly Cloudy
6:45 AM 21.2 °F - 21.2 °F 100% 30.41 in 6.0 mi Calm Calm - N/A   Scattered Clouds
7:45 AM 21.2 °F 14.9 °F 21.2 °F 100% 30.40 in 6.0 mi Variable 4.6 mph - N/A   Mostly Cloudy
8:45 AM 28.4 °F 23.3 °F 28.4 °F 100% 30.30 in 6.0 mi Variable 4.6 mph - N/A   Mostly Cloudy
9:45 AM 33.8 °F 30.8 °F 32.0 °F 93% 30.40 in 7.0 mi Variable 3.5 mph - N/A   Mostly Cloudy
10:45 AM 37.4 °F 30.8 °F 30.2 °F 75% 30.39 in 10.0 mi SE 9.2 mph - N/A   Mostly Cloudy
11:45 AM 37.4 °F 30.3 °F 28.4 °F 70% 30.36 in 10.0 mi SSE 10.4 mph - N/A   Mostly Cloudy
12:45 PM 39.2 °F 32.5 °F 30.2 °F 70% 30.32 in 10.0 mi SSE 10.4 mph - N/A   Mostly Cloudy
1:45 PM 41.0 °F 34.3 °F 28.4 °F 61% 30.29 in - SE 11.5 mph - N/A   Mostly Cloudy
2:45 PM 39.2 °F 33.0 °F 28.4 °F 65% 30.28 in - SE 9.2 mph - N/A   Mostly Cloudy
3:45 PM 39.2 °F 33.6 °F 30.2 °F 70% 30.25 in 10.0 mi SE 8.1 mph - N/A   Mostly Cloudy
4:45 PM 35.6 °F 30.7 °F 28.4 °F 75% 30.24 in 10.0 mi SE 5.8 mph - N/A   Scattered Clouds
5:45 PM 33.8 °F 29.6 °F 28.4 °F 81% 30.23 in 10.0 mi ESE 4.6 mph - N/A   Scattered Clouds
6:45 PM 30.2 °F 23.4 °F 26.6 °F 86% 30.22 in 10.0 mi SE 6.9 mph - N/A   Scattered Clouds
7:45 PM 32.0 °F 26.4 °F 28.4 °F 87% 30.21 in 10.0 mi SE 5.8 mph - N/A   Scattered Clouds
8:45 PM 30.2 °F 25.4 °F 28.4 °F 93% 30.21 in 7.0 mi ESE 4.6 mph - N/A   Scattered Clouds
8:55 PM 32.0 °F 26.4 °F 28.4 °F 87% 30.20 in 7.0 mi ESE 5.8 mph - N/A   Clear
9:15 PM 30.2 °F 25.4 °F 28.4 °F 93% 30.21 in 7.0 mi SE 4.6 mph - N/A   Clear
9:35 PM 30.2 °F 23.4 °F 30.2 °F 100% 30.20 in 7.0 mi SE 6.9 mph - N/A   Clear
9:55 PM 30.2 °F 23.4 °F 30.2 °F 100% 30.19 in 7.0 mi SE 6.9 mph - N/A   Clear
10:15 PM 32.0 °F 24.2 °F 30.2 °F 93% 30.18 in 7.0 mi SSE 9.2 mph - N/A   Clear
10:35 PM 32.0 °F 24.8 °F 30.2 °F 93% 30.19 in 7.0 mi SSE 8.1 mph - N/A   Clear
10:55 PM 32.0 °F 24.2 °F 30.2 °F 93% 30.18 in 7.0 mi SSE 9.2 mph - N/A   Clear
11:15 PM 32.0 °F 24.8 °F 30.2 °F 93% 30.18 in 7.0 mi SSE 8.1 mph - N/A   Clear
11:35 PM 32.0 °F 25.6 °F 28.4 °F 87% 30.18 in 7.0 mi SSE 6.9 mph - N/A   Clear
11:55 PM 32.0 °F 25.6 °F 28.4 °F 87% 30.17 in 7.0 mi SE 6.9 mph - N/A   Clear